Regional Weather Roundup
Issued by NWS

Home | Current Version | Previous Version | Text Only | Print | Product List | Glossary On
Versions: 1 2 3 4 5 6 7 8 9 10 11 12 13 14 15 16 17 18 19 20 21 22 23 24 25 26 27 28 29 30 31 32 33 34 35 36 37 38 39 40 41 42 43 44 45 46 47 48 49 50
000
ASCA42 TJSJ 021711
RWRPR
PUERTO RICO/U.S. VIRGIN ISLANDS HOURLY WEATHER ROUNDUP
NATIONAL WEATHER SERVICE SAN JUAN PR
100 PM AST TUE SEP 02 2014

PRZ001-004-021800-
PUERTO RICO

CITY           SKY/WX    TMP DP  RH WIND       PRES   REMARKS
SAN JUAN LMM   MOSUNNY   88  79  74 NE17      29.98F HX 102
MAYAGUEZ       PTSUNNY   88  72  58 W6        29.99F HX  94
AGUADILLA      RAIN      81  77  89 W10G21    30.00S
CEIBA          MOSUNNY   88  79  74 E10       30.01F HX 102
$$

PRZ006-007-021800-
U.S. VIRGIN ISLANDS

CITY           SKY/WX    TMP DP  RH WIND       PRES   REMARKS
CHRISTIANSTED  MOSUNNY   88  77  70 E15       30.00  HX 100
$$

HOURLY WEATHER ROUNDUP FOR THE NEWS MEDIA

CITY           SKY/WX    TMP DP  RH WIND       PRES   REMARKS
MIAMI          MOSUNNY   89  72  56 SE13      30.06F HX  96
ORLANDO        MOSUNNY   92  69  47 VRB5      30.09F HX  97
NEW YORK       PTSUNNY   88  70  55 S14       29.90F HX  93
NEWARK         PTSUNNY   93  68  43 W7G16     29.88F HX  97
CHICAGO        PTSUNNY   79  58  48 W9        29.90S
HARTFORD       SUNNY     87  73  62 S14       29.88F HX  94
BOSTON         MOSUNNY   91  68  46 SW12G17   29.84F HX  95
DALLAS         PTSUNNY   89  72  56 SE10G18   30.00R HX  96
PHILADELPHIA   PTSUNNY   90  69  50 S10       29.92F HX  94


USA.gov is the U.S. government's official web portal to all federal, state and local government web resources and services.